Wind_Speed
12 11 11 11 11 12 11 11 11 10 11 12 13 13 14 15 15 15 16 15 15 16 17 16 17 17 17 16 16 16 16 15 15 16 16 17 17 18 18 19 20 20
12 11 11 11 12 12 12 12 12 12 12 13 12 13 13 13 15 15 15 15 16 17 18 18 19 19 19 18 18 17 16 15 15 15 16 18 19 19 19 20 20 20
13 12 12 13 13 12 12 11 12 13 13 13 12 13 13 13 14 15 15 15 16 16 16 17 17 18 18 18 18 18 18 17 17 17 17 18 19 20 20 20 21 21
14 14 14 14 13 13 13 12 13 13 13 14 14 13 13 13 14 15 15 16 15 16 17 18 18 18 19 19 20 20 20 20 20 20 19 19 19 19 19 19 19 21
15 15 15 15 14 14 14 15 15 14 14 14 14 13 13 13 13 14 15 16 17 18 19 20 21 21 22 22 22 22 23 23 23 22 22 21 20 19 18 18 18 20
15 15 15 16 16 16 16 17 17 16 16 15 14 14 13 13 13 14 14 15 16 17 19 21 21 21 22 22 22 22 23 24 24 25 25 25 24 22 21 20 18 20
16 16 16 16 17 18 19 20 20 19 18 17 15 14 14 13 13 14 15 15 16 17 18 21 22 22 23 24 24 24 24 23 24 24 25 25 25 25 24 23 21 20
17 17 18 18 19 21 21 22 22 22 20 19 18 17 16 15 15 16 17 16 17 18 19 22 24 24 24 26 27 27 26 25 25 25 25 25 26 26 25 25 23 22
18 19 20 21 22 22 22 22 22 22 21 21 21 21 19 18 17 17 18 18 18 19 20 23 25 24 24 26 28 28 28 27 26 26 26 26 26 27 26 26 24 23
19 19 20 20 21 21 21 21 21 20 21 21 22 21 21 20 18 18 19 19 19 20 20 23 25 25 26 29 30 29 28 28 27 26 25 25 25 26 26 25 24 24
18 18 18 19 19 19 20 20 20 20 21 21 22 22 22 22 21 19 19 19 19 20 20 22 24 24 26 30 31 30 29 27 27 26 25 25 25 25 25 25 24 24
19 18 18 18 18 19 20 20 21 21 22 22 23 23 24 25 23 20 19 19 19 19 20 22 25 27 29 33 33 31 30 28 26 26 26 27 26 26 25 24 24 25
18 18 18 18 18 19 20 21 22 22 23 23 23 24 25 26 25 22 19 19 18 19 20 23 29 32 33 35 35 31 29 28 26 26 27 26 25 25 23 21 21 22
16 16 17 17 18 19 20 21 22 22 23 23 23 25 25 26 26 25 22 21 20 19 20 24 32 35 35 36 36 32 28 26 26 26 25 24 24 24 23 22 22 22
13 13 14 15 16 18 18 19 20 21 22 23 24 25 25 24 25 25 25 25 24 23 24 27 33 35 35 36 36 32 28 26 26 25 23 23 24 25 26 25 24 24
12 12 13 14 16 17 17 18 19 21 23 24 25 25 25 25 25 25 26 26 27 27 27 29 32 34 34 34 35 33 30 28 26 24 23 24 24 25 27 28 27 26
13 13 14 15 16 16 16 17 19 22 24 25 26 27 27 27 27 27 27 27 28 28 28 30 32 33 32 32 34 33 31 29 25 23 23 25 25 25 27 29 28 28
14 14 15 15 15 15 16 17 19 22 24 26 27 27 28 28 29 29 29 29 29 29 29 31 34 34 33 33 33 32 31 29 25 22 22 24 25 26 27 28 27 29
15 15 16 16 15 15 15 16 19 22 24 25 26 27 28 29 29 29 30 30 30 31 30 31 34 36 36 35 35 33 31 30 26 22 22 23 25 26 28 28 26 28
16 16 16 16 15 15 16 17 19 21 23 24 25 26 27 28 28 29 30 30 30 31 32 32 34 36 37 36 37 35 33 31 27 22 21 23 24 25 28 28 27 28
17 17 17 17 16 16 17 18 19 20 22 23 24 25 26 27 28 28 29 30 30 31 32 33 34 35 36 37 37 37 35 33 28 23 21 23 24 25 27 28 28 28
18 18 19 18 18 18 19 19 19 20 20 21 22 23 25 26 27 28 29 30 30 31 32 33 34 35 35 36 37 37 37 35 29 24 22 23 25 26 27 29 29 29
20 20 20 20 20 20 21 20 20 19 19 20 21 23 24 26 27 28 29 30 31 32 32 33 34 35 35 35 36 36 37 36 31 25 23 23 25 26 28 31 30 29
21 21 22 22 22 22 22 22 21 21 20 20 21 23 24 25 26 28 29 31 32 32 33 33 33 34 34 34 35 35 36 35 31 26 24 24 25 26 29 32 32 31
23 23 23 23 24 24 23 23 22 21 21 21 22 23 24 25 26 28 29 31 32 32 33 34 34 34 34 34 35 35 35 35 31 26 25 26 26 27 30 33 35 35
23 23 23 24 25 25 25 24 23 22 22 22 22 23 24 25 26 28 29 29 31 32 33 33 33 34 34 34 34 34 35 35 33 29 26 26 26 27 30 34 36 37
Wind_Direction
62 56 51 50 47 43 38 31 26 19 14 9 5 2 354 350 351 350 350 350 354 359 360 358 356 355 355 352 346 341 339 335 332 330 326 324 321 316 311 306 298 293
58 52 49 46 43 41 37 33 30 26 23 15 7 1 353 346 345 346 346 344 346 350 351 349 348 349 350 349 348 344 342 340 337 332 326 321 317 314 311 307 302 298
53 47 46 43 40 36 31 28 27 27 27 23 17 10 2 356 353 352 351 346 343 346 352 353 348 346 348 350 350 348 347 345 341 334 327 320 315 311 308 305 302 299
50 46 44 42 38 35 31 29 29 27 25 24 23 17 10 5 358 354 354 353 351 352 356 359 356 353 353 352 350 347 345 344 341 337 329 322 316 311 306 304 302 303
49 45 44 44 43 41 38 36 32 28 24 23 21 16 10 7 2 358 355 356 357 353 350 351 351 349 348 346 344 341 339 338 337 335 331 327 324 321 316 309 303 302
49 49 50 50 49 47 44 42 37 32 29 25 20 15 11 10 10 8 5 4 4 358 353 354 353 350 348 347 343 340 337 335 332 332 332 331 328 325 323 318 310 303
56 57 58 56 54 53 51 48 43 40 37 31 26 20 14 14 14 13 14 14 13 9 6 5 3 3 3 0 356 352 348 344 340 336 334 332 329 326 324 322 316 309
62 63 63 61 59 56 53 51 48 45 43 40 37 32 26 25 22 19 19 20 19 15 12 9 7 7 7 4 360 356 354 353 351 347 343 339 336 332 330 328 322 312
66 64 63 61 59 56 54 52 49 47 44 42 41 38 34 33 31 28 26 24 22 17 12 10 7 5 4 1 358 355 353 353 354 352 348 344 339 338 337 334 328 318
67 64 63 60 58 55 53 51 49 46 43 41 39 37 35 34 34 33 29 25 22 17 12 9 6 3 1 359 358 357 354 353 353 351 349 346 343 341 340 336 330 322
67 65 63 60 58 54 52 50 48 46 43 40 38 35 34 33 33 33 30 25 21 16 13 9 4 1 359 359 359 359 357 355 353 352 351 351 349 346 342 338 335 331
68 67 64 62 59 56 54 52 49 47 44 42 40 38 36 35 35 34 29 25 22 18 15 10 7 5 3 2 1 360 359 359 358 358 357 354 352 349 342 337 336 338
71 69 68 65 62 59 57 54 52 49 47 44 43 41 40 38 38 37 31 25 22 18 15 12 12 12 9 7 6 2 0 2 3 3 360 356 352 349 345 340 336 335
77 73 71 67 64 61 58 55 54 51 49 47 45 45 43 41 42 41 37 33 27 22 18 16 18 16 12 10 9 6 5 6 7 5 1 357 355 353 352 351 346 341
83 77 72 67 63 60 56 55 54 53 52 50 48 48 46 44 44 43 40 38 34 30 25 22 21 19 16 14 12 11 11 12 12 8 1 356 355 355 354 353 351 349
83 78 74 69 65 60 57 55 56 56 55 53 52 51 48 46 44 43 41 38 34 31 28 24 21 19 19 19 17 16 17 18 16 9 2 0 359 356 355 354 353 351
81 79 76 72 68 63 59 59 59 59 58 56 55 52 50 48 46 44 41 38 35 31 27 24 21 18 19 20 19 19 20 21 19 9 4 6 4 360 357 355 353 353
83 82 79 76 70 65 63 63 63 62 59 57 55 52 50 49 47 44 42 39 36 32 28 25 22 20 20 19 19 20 21 23 21 12 6 7 5 3 1 358 355 353
85 84 81 77 70 67 68 68 65 62 59 56 54 52 51 50 47 45 43 40 37 34 29 26 24 23 23 21 20 19 21 23 22 15 8 7 5 3 2 1 357 352
86 85 81 76 72 71 71 70 67 64 61 57 55 53 51 49 47 45 43 40 38 35 32 28 25 24 23 22 20 20 20 21 20 15 10 9 6 3 3 3 360 356
85 84 82 78 74 73 72 71 69 65 62 59 56 54 52 49 47 44 42 40 38 36 33 30 26 24 22 21 19 19 20 20 18 14 10 9 8 6 5 4 2 359
85 84 82 79 76 74 72 70 68 66 63 60 58 57 55 51 49 45 42 40 38 36 33 30 27 24 22 21 19 19 20 19 17 14 9 7 9 8 7 7 5 2
86 85 82 79 76 73 71 70 69 67 64 61 60 58 56 53 50 47 44 41 39 36 32 29 27 25 23 22 20 20 21 20 18 14 10 7 8 8 9 10 9 5
85 84 82 79 77 74 73 72 70 68 66 64 62 60 57 54 52 50 48 44 40 37 33 30 28 26 25 24 22 22 22 22 19 15 11 8 7 8 10 12 11 9
84 83 81 79 77 75 74 73 72 71 69 67 66 62 59 56 54 51 48 45 41 38 35 31 29 27 27 26 24 25 25 25 23 18 13 10 8 8 9 11 12 12
84 83 81 80 78 76 74 73 71 71 70 68 66 63 60 57 54 51 48 45 42 38 35 32 28 27 28 28 28 28 28 28 27 23 17 13 11 11 10 10 11 12
Height
825 825 825 824 824 823 822 822 822 822 821 821 821 821 820 820 819 818 817 817 816 815 814 813 812 811 810 809 807 806 805 804 802 801 800 799 798 797 797 796 795 795
827 827 826 825 824 823 822 822 822 821 821 821 821 821 821 820 820 818 817 816 815 814 813 812 812 810 809 808 806 805 804 802 801 800 799 798 797 796 795 794 793 793
828 828 827 826 824 823 823 822 822 822 821 821 820 820 820 820 819 818 817 815 815 814 813 812 811 810 809 807 805 804 802 801 800 798 797 796 796 795 793 792 791 790
830 829 827 826 825 824 823 823 823 822 821 820 820 820 820 819 819 818 817 816 815 814 813 811 810 809 808 806 804 803 802 800 799 797 796 795 794 793 791 790 789 787
830 829 828 827 826 825 825 824 823 823 821 820 820 820 819 819 819 818 817 816 815 814 812 811 810 808 807 805 804 802 800 799 798 796 795 793 792 791 789 788 787 785
831 830 829 828 827 826 826 824 824 823 822 821 820 820 820 819 818 818 817 816 815 814 813 811 810 808 806 805 803 801 800 798 796 795 793 791 789 788 787 786 785 783
832 831 830 830 828 828 826 825 825 824 823 823 822 821 820 819 819 818 817 817 816 815 813 812 810 808 806 805 803 801 799 797 795 793 792 790 788 787 786 784 783 781
834 832 832 831 829 829 828 827 826 826 826 825 824 823 822 820 820 819 818 818 817 816 814 813 811 809 807 805 803 801 799 797 795 793 791 789 787 785 784 782 781 779
835 834 833 832 831 831 830 830 829 829 828 827 826 825 823 822 821 821 820 819 818 817 816 814 812 810 809 806 804 801 799 796 794 792 790 788 787 785 783 781 779 777
836 836 835 835 835 834 834 833 832 831 830 829 828 827 825 824 823 822 821 820 819 818 817 816 814 812 809 807 804 802 799 796 794 792 790 788 786 785 783 781 779 776
839 838 838 838 838 837 836 836 834 833 832 831 830 828 827 825 824 823 822 821 821 820 819 817 815 813 810 807 804 802 799 796 794 792 790 788 786 784 782 780 778 776
841 841 841 841 841 840 839 837 836 835 834 832 831 830 828 827 825 824 824 823 823 822 821 819 817 814 811 808 804 801 799 796 794 792 790 787 785 783 782 779 777 775
843 843 843 843 843 842 840 839 837 836 835 834 833 831 830 829 827 827 826 826 825 824 822 821 818 815 812 808 805 801 799 796 794 792 790 788 786 784 781 779 777 775
845 846 846 845 845 843 842 840 839 838 837 836 835 833 832 831 830 829 828 828 827 825 824 822 819 816 812 809 805 802 799 797 794 792 790 788 786 784 781 779 776 774
847 847 847 847 846 844 843 842 841 840 839 838 836 835 834 833 832 831 830 829 828 826 825 822 820 817 814 811 808 804 800 798 795 793 791 789 786 784 781 778 776 773
848 848 848 847 846 846 845 844 843 842 841 839 838 837 836 835 834 833 831 830 828 827 825 823 820 818 816 814 810 806 802 799 796 794 792 790 787 784 781 777 775 773
849 848 848 848 848 847 847 846 845 844 842 841 840 839 838 836 835 834 832 831 829 828 826 824 822 820 817 814 811 807 804 800 798 796 793 791 788 785 782 778 775 772
849 849 849 850 849 849 848 848 847 845 844 842 841 840 839 838 836 835 834 832 831 829 827 825 823 821 818 815 812 808 805 802 799 797 795 792 789 786 783 779 775 772
850 850 851 851 850 850 850 849 848 846 845 844 843 842 841 839 838 837 835 834 832 830 828 826 823 821 818 815 812 809 806 803 800 798 796 793 790 787 784 780 777 773
851 852 852 852 852 851 851 850 849 847 847 846 845 844 843 841 840 839 837 835 833 831 829 827 825 822 820 817 814 811 807 804 801 799 797 795 792 789 785 781 778 775
853 853 853 853 853 852 851 851 850 849 848 848 847 846 845 843 842 840 839 837 835 833 830 828 827 824 821 818 815 812 808 805 802 800 798 796 793 790 786 783 779 776
854 854 854 854 854 853 853 852 851 851 850 850 849 848 847 846 844 842 841 838 836 834 832 830 828 826 823 820 817 813 809 806 803 801 799 797 794 791 788 784 781 778
856 856 856 856 855 855 854 853 853 852 852 852 851 850 849 847 846 844 843 840 838 836 834 832 830 828 825 822 818 815 811 807 804 802 800 798 795 792 789 786 782 780
859 858 858 858 857 856 856 855 854 854 854 854 853 852 851 849 848 846 844 842 840 838 836 834 832 830 827 824 820 816 813 809 806 804 802 799 797 794 791 787 784 781
861 860 860 859 859 858 857 857 857 856 856 856 855 854 853 851 849 847 845 844 842 840 838 836 834 831 829 825 822 818 815 811 808 806 803 801 798 795 792 789 785 781
863 863 862 861 861 860 859 859 859 859 858 858 856 855 854 852 850 849 847 846 844 842 840 838 835 833 830 827 824 820 817 814 811 808 806 803 801 797 794 790 786 782